Location: Freistadt
(48.5112°N, 14.5013°E)
Time: 16:50:37
(UTC+02:00)

CUBEBUG 2 - Pass Details

Date: 02 April 2023
Orbit: 577 x 685 km, 97.8° (Epoch: 02 June)

Event Time Altitude Azimuth Distance (km) Brightness Sun altitude
Rises 04:01:52 0° 10° (N) 3,069 ? -24.3°
Reaches altitude 10° 04:04:10 10° 7° (N) 2,144 ? -24.1°
Maximum altitude 04:08:48 61° 288° (WNW) 771 ? -23.5°
Enters shadow 04:08:49 61° 287° (WNW) 771 ? -23.5°
